Location: ASU Dark Sky Observatory
(36.2504°N, 81.4125°W)
Time: 10:53:33
(UTC-04:00)

Amateur Radio Satellites - All Passes

Search period start: 25 May 2016 10:23
Search period end: 26 May 2016 10:23
Location: ASU Dark Sky Observatory, 36.2504°N, 81.4125°W

Satellite Date Start Highest point End Downlink Frequencies (MHz)
Time Altitude Azimuth
CINEMA 3 25 May 10:35:41 10:38:29 18° 292° (WNW) 10:41:17 145.822/145.860
Cosmos 2499 25 May 10:36:30 10:45:05 70° 82° (E) 10:53:55 435.465 / 435.565
AIST 1 25 May 10:40:04 10:42:44 16° 273° (W) 10:45:22
UWE-3 25 May 10:40:19 10:44:30 79° 282° (WNW) 10:48:42 435.000/436.395/437.385
SO-50 25 May 10:42:41 10:47:17 54° 57° (ENE) 10:51:43 436.795
COMPASS 1 25 May 10:43:41 10:47:19 28° 289° (WNW) 10:50:56 437.405
GONETS M04 25 May 10:44:42 10:53:19 68° 267° (W) 11:01:53
AUBIESAT-1 25 May 10:45:12 10:45:28 10° 298° (WNW) 10:45:45 437.475
HUMSAT D 25 May 10:46:08 10:48:45 16° 94° (E) 10:51:22 437.325/437.525
PCSat 25 May 10:48:48 10:54:09 69° 114° (ESE) 10:59:34 145.827
JUGNU 25 May 10:48:52 10:52:06 15° 186° (S) 10:55:19 437.505
AAUSAT CUBESAT 2 25 May 10:48:55 10:52:36 31° 288° (WNW) 10:56:18 437.432
SRMSAT 25 May 10:48:58 10:51:59 14° 173° (S) 10:55:00 437.500
ANTELSAT 25 May 10:52:13 10:56:35 63° 75° (ENE) 11:00:52 437.575/2403.000
FUNcube-1 25 May 10:52:14 10:56:25 87° 103° (ESE) 11:00:40 145.935
O/OREOS (USA 219) 25 May 11:04:26 11:08:55 57° 292° (WNW) 11:13:25 437.305
DUCHIFAT 1 25 May 11:30:21 11:33:50 25° 70° (ENE) 11:37:18 145.980
CUSAT 1 25 May 11:34:36 11:38:28 18° 80° (E) 11:42:50 437.405
Oscar 11 25 May 11:40:43 11:44:04 22° 291° (WNW) 11:47:24 145.826/435.025
DELFI C3 25 May 11:41:18 11:45:06 40° 286° (WNW) 11:48:53 145.870
CUBEBUG 2 25 May 11:45:45 11:46:06 10° 295° (WNW) 11:46:28 437.445
UNISAT 6 25 May 11:48:08 11:51:57 28° 263° (W) 11:55:44 437.425
ZACube-1 25 May 11:49:48 11:52:46 19° 291° (WNW) 11:55:45 437.345
CUBEBUG 1 25 May 11:53:51 11:54:56 11° 91° (E) 11:56:01 437.445
VELOX 1 25 May 11:53:56 11:54:42 10° 91° (E) 11:55:30 145.980
HO-68 25 May 11:54:46 11:57:07 12° 306° (NW) 11:59:28 435.675
BEESAT 2 25 May 11:56:26 11:57:25 11° 108° (ESE) 11:58:25 435.950
TIGRISAT 25 May 11:56:54 12:00:29 24° 264° (W) 12:04:02 435.000
BUGSAT 1 25 May 11:59:47 12:03:16 25° 70° (ENE) 12:06:43 437.445
POPSAT HIP 1 25 May 12:04:29 12:08:43 72° 76° (ENE) 12:12:57 437.405
QB50P1 25 May 12:05:09 12:09:23 75° 76° (ENE) 12:13:37 145.935-145.965
QB50P2 25 May 12:06:28 12:10:43 82° 75° (ENE) 12:14:58 145.880/145.840
POLYITAN 1 25 May 12:08:55 12:13:09 84° 79° (E) 12:17:25 437.675
HUMSAT D 25 May 12:20:41 12:24:26 34° 287° (WNW) 12:28:13 437.325/437.525
SO-50 25 May 12:24:57 12:27:12 14° 253° (WSW) 12:29:26 436.795
NANOSAT C BR1 25 May 12:25:11 12:29:23 65° 259° (W) 12:33:35 145.865
AISAT 25 May 12:26:58 12:30:47 28° 97° (E) 12:34:34 437.250
Cosmos 2499 25 May 12:31:08 12:37:25 23° 278° (W) 12:43:51 435.465 / 435.565
SPROUT 25 May 12:32:57 12:34:07 11° 92° (E) 12:35:15 437.525
BEESAT 3 25 May 12:33:15 12:37:06 59° 117° (ESE) 12:40:59 437.485
PCSat 25 May 12:34:37 12:38:04 17° 311° (NW) 12:41:32 145.827
SRMSAT 25 May 12:37:01 12:40:22 15° 183° (S) 12:43:41 437.500
JAS-2 25 May 12:40:20 12:46:46 36° 66° (ENE) 12:53:40 435.910
DANDE 25 May 12:45:18 12:49:34 29° 85° (E) 12:54:58 436.750
UKube-1 25 May 12:49:22 12:53:15 32° 98° (E) 12:57:07 .
ESTCUBE 1 25 May 12:53:46 12:58:21 87° 105° (ESE) 13:02:53 437.505/2401.250
50 SAT 25 May 12:59:39 13:03:23 86° 104° (ESE) 13:07:06 437.505
DUCHIFAT 1 25 May 13:06:04 13:09:26 23° 264° (W) 13:12:48 145.980
CUSAT 1 25 May 13:13:41 13:19:27 67° 282° (WNW) 13:26:47 437.405
Oscar 19 25 May 13:21:59 13:26:32 32° 69° (ENE) 13:31:05 437.125/150
Gurwin Techsat 1B 25 May 13:25:55 13:28:39 14° 63° (ENE) 13:31:21 435.225
VELOX 1 25 May 13:27:09 13:31:31 59° 286° (WNW) 13:35:50 145.980
CUBEBUG 1 25 May 13:27:15 13:31:32 55° 286° (WNW) 13:35:47 437.445
DX 1 25 May 13:30:50 13:35:09 63° 286° (WNW) 13:39:27 434.975-435.025
BEESAT 2 25 May 13:30:54 13:34:46 52° 302° (WNW) 13:38:41 435.950
BUGSAT 1 25 May 13:35:12 13:38:33 23° 264° (W) 13:41:54 437.445
ITAMSAT 1 25 May 14:01:18 14:02:49 11° 61° (ENE) 14:04:20 435.822/435.867
AISAT 25 May 14:03:40 14:07:05 22° 292° (WNW) 14:10:29 437.250
SPROUT 25 May 14:06:12 14:10:20 51° 286° (WNW) 14:14:26 437.525
BEESAT 3 25 May 14:13:30 14:15:10 12° 313° (NW) 14:16:48 437.485
JAS-2 25 May 14:24:52 14:31:30 43° 264° (W) 14:38:47 435.910
UKube-1 25 May 14:25:59 14:29:03 19° 293° (WNW) 14:32:06 .
DANDE 25 May 14:27:43 14:32:15 31° 291° (WNW) 14:38:02 436.750
SRMSAT 25 May 14:27:44 14:28:42 10° 193° (SSW) 14:29:39 437.500
BEESAT 25 May 14:39:14 14:42:02 15° 93° (E) 14:44:49 436.000
TISAT 1 25 May 14:39:48 14:43:59 83° 283° (WNW) 14:48:09 437.305
AO-7 25 May 14:50:45 14:57:07 26° 58° (ENE) 15:03:30 29.400- 29.500
Oscar 19 25 May 15:01:24 15:05:47 27° 264° (W) 15:10:11 437.125/150
Gurwin Techsat 1B 25 May 15:02:42 15:07:58 67° 258° (WSW) 15:13:16 435.225
CUSAT 1 25 May 15:03:09 15:03:22 10° 303° (WNW) 15:03:36 437.405
AIST 2 25 May 15:19:08 15:23:12 61° 302° (WNW) 15:27:18 435.215
ITAMSAT 1 25 May 15:36:23 15:41:33 81° 257° (WSW) 15:46:45 435.822/435.867
SWISSCUBE 25 May 15:45:13 15:50:02 90° 289° (WNW) 15:54:50 437.505
ITUPSAT 1 25 May 15:49:59 15:54:49 89° 108° (ESE) 15:59:38 437.325
YUBILEINY 25 May 15:58:20 16:04:48 24° 82° (E) 16:11:17 435.215
Cosmos 2491 25 May 15:58:30 16:07:03 55° 79° (ENE) 16:15:32 435.465 / 435.565
AO-85 25 May 16:08:46 16:13:11 43° 55° (NE) 16:17:13 145.980
MOZHAYETS 4 25 May 16:13:01 16:15:12 13° 92° (E) 16:17:23
KKS-1 25 May 16:14:59 16:18:03 18° 94° (E) 16:21:05 437.445
BEESAT 25 May 16:15:26 16:20:01 47° 287° (WNW) 16:24:36 436.000
HORYU 2 25 May 16:36:54 16:40:24 23° 69° (ENE) 16:43:53 437.375
AO-7 25 May 16:40:55 16:49:09 69° 255° (WSW) 16:57:27 29.400- 29.500
RS-15 25 May 16:44:20 16:52:23 23° 100° (E) 17:00:41 29.354- 29.394
STARS 25 May 16:56:54 17:00:36 26° 97° (E) 17:04:16 437.465
NOAA 18 25 May 17:27:30 17:30:32 15° 62° (ENE) 17:33:33 137.9125
BRITE-PL 25 May 17:32:19 17:35:22 15° 63° (ENE) 17:38:26 437.365/2234.400
MOZHAYETS 4 25 May 17:48:08 17:52:38 51° 286° (WNW) 17:57:06
Cubesat XI-IV 25 May 17:48:13 17:51:42 18° 64° (ENE) 17:55:13 437.490
AO-85 25 May 17:50:31 17:53:09 16° 253° (WSW) 17:55:38 145.980
KKS-1 25 May 17:50:40 17:54:41 34° 289° (WNW) 17:58:40 437.445
NOAA 15 25 May 17:50:58 17:55:27 29° 68° (ENE) 17:59:57 137.62
YUBILEINY 25 May 17:52:15 18:00:50 63° 280° (W) 18:09:27 435.215
Cosmos 2491 25 May 17:56:15 18:03:18 28° 276° (W) 18:10:19 435.465 / 435.565
GOMX 1 25 May 18:09:13 18:12:23 16° 65° (ENE) 18:15:33 467.674
HORYU 2 25 May 18:13:02 18:16:48 27° 263° (W) 18:20:35 437.375
Cosmos 2504 25 May 18:29:22 18:36:25 64° 92° (E) 18:43:47 435.465 / 435.565
STARS 25 May 18:33:22 18:36:48 23° 291° (WNW) 18:40:14 437.465
CUTE-I 25 May 18:33:22 18:38:26 49° 72° (ENE) 18:43:32 437.470
HO-68 25 May 18:47:33 18:49:20 11° 53° (NE) 18:51:08 435.675
RS-15 25 May 18:51:59 19:03:16 82° 301° (WNW) 19:15:16 29.354- 29.394
LilacSat-2 25 May 18:59:01 19:02:50 83° 77° (ENE) 19:06:38 437.200
NOAA 18 25 May 19:05:09 19:10:35 66° 257° (WSW) 19:16:01 137.9125
CUBESAT XI-V 25 May 19:06:50 19:11:33 69° 284° (WNW) 19:16:12 437.345
BRITE-PL 25 May 19:07:33 19:13:05 74° 259° (WSW) 19:18:49 437.365/2234.400
DOVE 4 25 May 19:08:34 19:12:59 28° 70° (ENE) 19:17:16 437.250
Cubesat XI-IV 25 May 19:26:10 19:31:19 52° 260° (W) 19:36:31 437.490
STRAND 1 25 May 19:30:07 19:32:53 14° 92° (E) 19:35:38 437.568
NOAA 15 25 May 19:30:24 19:35:05 32° 263° (W) 19:39:48 137.62
O/OREOS (USA 219) 25 May 19:39:08 19:41:50 16° 58° (ENE) 19:44:31 437.305
PCSat 25 May 19:39:36 19:44:27 32° 55° (NE) 19:49:15 145.827
GOMX 1 25 May 19:44:25 19:49:52 66° 260° (W) 19:55:18 467.674
AUBIESAT-1 25 May 19:51:27 19:55:18 35° 69° (ENE) 19:58:55 437.475
M-CUBED/EXP-1 PRIME 25 May 19:55:42 19:59:54 50° 70° (ENE) 20:03:48 437.505
CINEMA 3 25 May 19:56:48 20:00:38 24° 70° (ENE) 20:04:22 145.822/145.860
CUTE-I 25 May 20:15:10 20:18:43 18° 267° (W) 20:22:16 437.470
Cosmos 2504 25 May 20:25:27 20:30:26 20° 292° (WNW) 20:35:36 435.465 / 435.565
HO-68 25 May 20:28:40 20:35:43 67° 71° (ENE) 20:42:48 435.675
CANX-2 25 May 20:33:22 20:37:30 62° 76° (ENE) 20:41:40 2200.000
SEEDS 25 May 20:40:51 20:44:49 45° 74° (ENE) 20:48:49 437.485
DOVE 4 25 May 20:45:48 20:50:30 32° 263° (W) 20:55:06 437.250
BEESAT 3 25 May 20:53:51 20:56:25 16° 49° (NE) 20:58:58 437.485
Oscar 11 25 May 20:57:35 21:00:13 16° 67° (ENE) 21:02:51 145.826/435.025
CUTE 1.7 + AOD 2 25 May 21:01:02 21:05:13 69° 259° (W) 21:09:25 437.475
CUBEBUG 2 25 May 21:01:22 21:05:24 35° 73° (ENE) 21:09:21 437.445
ZACube-1 25 May 21:07:07 21:09:59 18° 69° (ENE) 21:12:49 437.345
STRAND 1 25 May 21:07:19 21:12:22 57° 287° (WNW) 21:17:24 437.568
RS-15 25 May 21:08:40 21:17:53 26° 326° (NNW) 21:27:31 29.354- 29.394
O/OREOS (USA 219) 25 May 21:17:12 21:21:28 45° 254° (WSW) 21:25:41 437.305
PCSat 25 May 21:23:00 21:27:45 32° 252° (WSW) 21:32:28 145.827
AUBIESAT-1 25 May 21:27:03 21:29:47 17° 260° (W) 21:32:24 437.475
AIST 1 25 May 21:28:19 21:31:48 23° 89° (E) 21:35:19
COMPASS 1 25 May 21:31:03 21:35:07 60° 259° (W) 21:39:14 437.405
M-CUBED/EXP-1 PRIME 25 May 21:32:48 21:34:32 12° 261° (W) 21:36:14 437.505
CINEMA 3 25 May 21:33:23 21:37:36 30° 263° (W) 21:41:43 145.822/145.860
UWE-3 25 May 21:34:26 21:38:43 58° 75° (ENE) 21:42:54 435.000/436.395/437.385
AAUSAT CUBESAT 2 25 May 21:35:47 21:39:52 67° 259° (W) 21:44:00 437.432
FUNcube-1 25 May 21:45:04 21:49:08 46° 74° (ENE) 21:53:09 145.935
PRISM 25 May 21:45:29 21:49:39 71° 102° (ESE) 21:53:47 437.425
GONETS M04 25 May 21:47:14 21:54:24 29° 84° (E) 22:01:31
BEESAT 2 25 May 21:51:24 21:55:07 37° 55° (NE) 21:58:49 435.950
CUSAT 1 25 May 22:12:10 22:16:04 14° 60° (ENE) 22:19:42 437.405
HO-68 25 May 22:19:00 22:23:54 20° 267° (W) 22:28:50 435.675
SEEDS 25 May 22:19:10 22:20:45 12° 268° (W) 22:22:20 437.485
ISS 25 May 22:20:59 22:24:09 53° 136° (SE) 22:27:21 145.825
DELFI C3 25 May 22:24:08 22:28:03 76° 78° (ENE) 22:32:02 145.870
PHONESAT 2.4 25 May 22:25:15 22:27:15 16° 145° (SE) 22:29:16 2401.200-2431.200
BEESAT 3 25 May 22:30:34 22:34:16 39° 245° (WSW) 22:37:56 437.485
Oscar 11 25 May 22:32:01 22:36:01 38° 262° (W) 22:40:02 145.826/435.025
CUBEBUG 2 25 May 22:39:09 22:42:05 17° 266° (W) 22:44:59 437.445
ZACube-1 25 May 22:42:10 22:46:01 33° 262° (W) 22:49:50 437.345
ANTELSAT 25 May 22:47:41 22:50:13 15° 94° (E) 22:52:46 437.575/2403.000
AIST 1 25 May 23:05:41 23:09:16 24° 284° (WNW) 23:12:53
HUMSAT D 25 May 23:08:46 23:12:50 72° 258° (WSW) 23:16:56 437.325/437.525
Cosmos 2499 25 May 23:10:23 23:17:20 57° 91° (E) 23:24:43 435.465 / 435.565
AISAT 25 May 23:22:19 23:25:31 20° 68° (ENE) 23:28:44 437.250
FUNcube-1 25 May 23:23:52 23:25:35 12° 268° (W) 23:27:16 145.935
DANDE 25 May 23:25:45 23:33:00 31° 70° (ENE) 23:39:43 436.750
BEESAT 2 25 May 23:30:15 23:32:38 15° 250° (WSW) 23:35:01 435.950
RS-15 25 May 23:30:28 23:36:46 15° 3° (N) 23:43:09 29.354- 29.394
50 SAT 25 May 23:35:50 23:38:47 24° 71° (ENE) 23:41:46 437.505
UNISAT 6 25 May 23:41:30 23:45:47 68° 101° (ESE) 23:50:07 437.425
UKube-1 25 May 23:41:54 23:45:05 20° 68° (ENE) 23:48:17 .
GONETS M04 25 May 23:42:05 23:50:39 55° 281° (W) 23:59:13
AIST 2 25 May 23:42:59 23:46:50 36° 55° (NE) 23:50:40 435.215
TIGRISAT 25 May 23:49:47 23:54:05 80° 102° (ESE) 23:58:26 435.000
ESTCUBE 1 25 May 23:50:26 23:54:50 57° 75° (ENE) 23:59:17 437.505/2401.250
CUSAT 1 25 May 23:51:45 23:59:36 82° 81° (E) 00:06:03 437.405
POPSAT HIP 1 25 May 23:53:31 23:55:42 14° 93° (E) 23:57:51 437.405
QB50P1 25 May 23:54:03 23:56:19 14° 93° (E) 23:58:36 145.935-145.965
QB50P2 25 May 23:55:19 23:57:54 16° 94° (E) 00:00:29 145.880/145.840
POLYITAN 1 25 May 23:57:42 00:00:20 16° 94° (E) 00:02:57 437.675
ISS 25 May 23:58:32 00:00:49 17° 332° (NNW) 00:03:06 145.825
PHONESAT 2.4 26 May 00:00:34 00:03:42 89° 138° (SE) 00:06:51 2401.200-2431.200
NANOSAT C BR1 26 May 00:12:47 00:16:08 23° 96° (E) 00:19:27 145.865
CUBEBUG 1 26 May 00:19:59 00:24:25 85° 76° (ENE) 00:28:53 437.445
VELOX 1 26 May 00:21:21 00:25:48 87° 77° (ENE) 00:30:18 145.980
ANTELSAT 26 May 00:23:03 00:27:03 38° 287° (WNW) 00:31:05 437.575/2403.000
DX 1 26 May 00:23:17 00:27:40 78° 74° (ENE) 00:32:03 434.975-435.025
DUCHIFAT 1 26 May 00:51:45 00:55:54 66° 101° (E) 01:00:02 145.980
SO-50 26 May 00:54:09 00:58:32 34° 113° (ESE) 01:02:57 436.795
SPROUT 26 May 00:56:37 01:00:55 82° 79° (E) 01:05:14 437.525
AISAT 26 May 00:57:41 01:01:44 34° 262° (W) 01:05:49 437.250
Cosmos 2499 26 May 01:05:28 01:10:57 23° 291° (WNW) 01:16:42 435.465 / 435.565
DANDE 26 May 01:08:02 01:16:13 56° 268° (W) 01:23:36 436.750
50 SAT 26 May 01:10:06 01:12:29 17° 265° (W) 01:14:54 437.505
UKube-1 26 May 01:17:06 01:20:55 30° 262° (W) 01:24:46 .
BUGSAT 1 26 May 01:18:41 01:22:41 60° 101° (E) 01:26:38 437.445
AIST 2 26 May 01:22:18 01:25:00 17° 250° (WSW) 01:27:43 435.215
POPSAT HIP 1 26 May 01:27:42 01:31:38 40° 287° (WNW) 01:35:32 437.405
QB50P1 26 May 01:28:20 01:32:14 39° 287° (WNW) 01:36:08 145.935-145.965
TISAT 1 26 May 01:28:35 01:32:40 49° 74° (ENE) 01:36:45 437.305
QB50P2 26 May 01:29:57 01:33:48 35° 288° (WNW) 01:37:37 145.880/145.840
ESTCUBE 1 26 May 01:30:33 01:31:58 11° 269° (W) 01:33:23 437.505/2401.250
POLYITAN 1 26 May 01:32:25 01:36:13 34° 288° (WNW) 01:40:01 437.675
CUSAT 1 26 May 01:36:11 01:40:25 16° 281° (W) 01:44:18 437.405
PHONESAT 2.4 26 May 01:37:42 01:40:39 36° 355° (N) 01:43:35 2401.200-2431.200
Oscar 19 26 May 01:37:47 01:40:06 13° 92° (E) 01:42:23 437.125/150
JAS-2 26 May 01:38:00 01:44:50 38° 95° (E) 01:50:57 435.910
BEESAT 26 May 01:43:54 01:46:19 14° 64° (ENE) 01:48:46 436.000
RS-15 26 May 01:44:55 01:55:18 30° 38° (NE) 02:05:40 29.354- 29.394
NANOSAT C BR1 26 May 01:48:23 01:51:46 24° 290° (WNW) 01:55:09 145.865
SO-50 26 May 02:34:51 02:39:02 28° 309° (NW) 02:43:15 436.795
SWISSCUBE 26 May 02:48:52 02:53:35 77° 76° (ENE) 02:58:22 437.505
ITUPSAT 1 26 May 02:53:56 02:58:40 77° 76° (ENE) 03:03:26 437.325
TISAT 1 26 May 03:07:06 03:08:34 11° 268° (W) 03:10:01 437.305
KKS-1 26 May 03:11:40 03:13:47 13° 65° (ENE) 03:15:52 437.445
PHONESAT 2.4 26 May 03:14:41 03:17:43 47° 12° (NNE) 03:20:45 2401.200-2431.200
Oscar 19 26 May 03:14:42 03:19:48 63° 286° (WNW) 03:24:51 437.125/150
BEESAT 26 May 03:18:57 03:23:36 56° 259° (W) 03:28:17 436.000
Gurwin Techsat 1B 26 May 03:21:32 03:26:49 61° 101° (E) 03:32:03 435.225
JAS-2 26 May 03:22:59 03:29:42 37° 294° (WNW) 03:35:48 435.910
STARS 26 May 03:51:38 03:54:39 18° 67° (ENE) 03:57:40 437.465
ITAMSAT 1 26 May 03:51:58 03:56:58 44° 100° (E) 04:01:55 435.822/435.867
RS-15 26 May 03:57:07 04:09:32 89° 242° (WSW) 04:21:48 29.354- 29.394
YUBILEINY 26 May 04:05:29 04:14:06 58° 80° (E) 04:22:42 435.215
Cosmos 2504 26 May 04:24:46 04:30:55 22° 70° (ENE) 04:37:14 435.465 / 435.565
KKS-1 26 May 04:45:29 04:49:51 53° 260° (W) 04:54:15 437.445
AO-7 26 May 04:45:30 04:53:33 49° 102° (ESE) 05:01:34 29.400- 29.500
MOZHAYETS 4 26 May 04:46:59 04:51:31 76° 258° (WSW) 04:56:06
ISS 26 May 04:51:05 04:53:47 23° 32° (NNE) 04:56:27 145.825
PHONESAT 2.4 26 May 04:51:29 04:54:27 41° 208° (SSW) 04:57:25 2401.200-2431.200
Cosmos 2491 26 May 04:55:41 05:04:26 70° 92° (E) 05:13:11 435.465 / 435.565
Gurwin Techsat 1B 26 May 05:03:07 05:06:13 16° 297° (WNW) 05:09:18 435.225
STARS 26 May 05:26:40 05:30:44 35° 262° (W) 05:34:48 437.465
ITAMSAT 1 26 May 05:32:18 05:36:05 21° 294° (WNW) 05:39:51 435.822/435.867
YUBILEINY 26 May 06:03:22 06:10:14 27° 277° (W) 06:17:10 435.215
HORYU 2 26 May 06:05:40 06:10:04 66° 102° (ESE) 06:14:28 437.375
CUBESAT XI-V 26 May 06:07:05 06:11:45 84° 74° (ENE) 06:16:27 437.345
NOAA 15 26 May 06:10:25 06:12:34 12° 91° (E) 06:14:43 137.62
RS-15 26 May 06:12:14 06:20:18 21° 261° (W) 06:28:21 29.354- 29.394
Cosmos 2504 26 May 06:16:32 06:24:58 75° 266° (W) 06:33:46 435.465 / 435.565
AO-85 26 May 06:19:33 06:24:18 32° 112° (ESE) 06:29:04 145.980
ISS 26 May 06:27:18 06:30:15 32° 227° (SW) 06:33:11 145.825
LilacSat-2 26 May 06:37:45 06:38:21 10° 92° (E) 06:38:57 437.200
AO-7 26 May 06:38:41 06:46:00 35° 298° (WNW) 06:53:19 29.400- 29.500
STRAND 1 26 May 06:43:38 06:46:49 17° 64° (ENE) 06:50:01 437.568
CUTE-I 26 May 06:53:34 06:57:51 24° 95° (E) 07:02:07 437.470
Cosmos 2491 26 May 06:55:21 07:01:57 23° 291° (WNW) 07:08:38 435.465 / 435.565
JUGNU 26 May 06:59:28 07:00:32 10° 166° (SSE) 07:01:35 437.505
BRITE-PL 26 May 07:16:07 07:21:02 47° 98° (E) 07:25:34 437.365/2234.400
NOAA 18 26 May 07:29:46 07:35:14 66° 103° (ESE) 07:40:40 137.9125
HORYU 2 26 May 07:45:10 07:46:02 11° 297° (WNW) 07:46:54 437.375
Cubesat XI-IV 26 May 07:45:47 07:51:10 78° 103° (ESE) 07:56:32 437.490
NOAA 15 26 May 07:47:30 07:52:47 69° 286° (WNW) 07:58:01 137.62
GOMX 1 26 May 07:49:56 07:54:26 46° 98° (E) 07:58:38 467.674
AO-85 26 May 07:59:47 08:04:45 35° 307° (NW) 08:09:39 145.980
HO-68 26 May 08:02:14 08:05:19 13° 90° (E) 08:08:22 435.675
GONETS M04 26 May 08:03:45 08:05:28 11° 60° (ENE) 08:07:10
LilacSat-2 26 May 08:09:16 08:12:50 42° 286° (WNW) 08:16:25 437.200
Cosmos 2504 26 May 08:14:19 08:16:57 12° 283° (WNW) 08:19:35 435.465 / 435.565
STRAND 1 26 May 08:20:35 08:25:32 52° 260° (W) 08:30:31 437.568
CANX-2 26 May 08:22:39 08:24:44 13° 92° (E) 08:26:48 2200.000
PRISM 26 May 08:32:22 08:36:06 34° 72° (ENE) 08:39:53 437.425
CUTE-I 26 May 08:33:02 08:37:56 37° 290° (WNW) 08:42:50 437.470
JUGNU 26 May 08:45:20 08:48:44 16° 176° (S) 08:52:08 437.505
DOVE 4 26 May 08:47:23 08:51:48 87° 283° (WNW) 08:55:59 437.250
CUTE 1.7 + AOD 2 26 May 08:49:02 08:52:30 24° 95° (E) 08:55:59 437.475
BRITE-PL 26 May 08:55:42 08:59:00 18° 296° (WNW) 09:02:10 437.365/2234.400
Cosmos 2499 26 May 09:04:46 09:10:32 19° 68° (ENE) 09:16:25 435.465 / 435.565
AUBIESAT-1 26 May 09:07:08 09:10:07 31° 103° (ESE) 09:13:07 437.475
M-CUBED/EXP-1 PRIME 26 May 09:12:10 09:15:22 48° 105° (ESE) 09:18:32 437.505
NOAA 18 26 May 09:12:12 09:15:17 15° 298° (WNW) 09:18:22 137.9125
AIST 1 26 May 09:14:28 09:18:47 61° 82° (E) 09:23:03
COMPASS 1 26 May 09:16:52 09:20:23 25° 96° (E) 09:23:52 437.405
AAUSAT CUBESAT 2 26 May 09:21:14 09:24:33 22° 95° (E) 09:27:50 437.432
UWE-3 26 May 09:28:09 09:30:13 13° 93° (E) 09:32:16 435.000/436.395/437.385
Cubesat XI-IV 26 May 09:28:23 09:30:32 12° 299° (WNW) 09:32:41 437.490
SO-50 26 May 09:28:51 09:31:53 17° 46° (NE) 09:34:52 436.795
GOMX 1 26 May 09:29:24 09:32:02 15° 296° (WNW) 09:34:34 467.674
CINEMA 3 26 May 09:30:12 09:34:23 79° 102° (ESE) 09:38:30 145.822/145.860
FUNcube-1 26 May 09:38:39 09:38:58 10° 92° (E) 09:39:18 145.935
ANTELSAT 26 May 09:46:10 09:46:59 10° 65° (ENE) 09:47:48 437.575/2403.000
HO-68 26 May 09:46:36 09:53:48 89° 105° (ESE) 10:01:00 435.675
O/OREOS (USA 219) 26 May 09:47:57 09:51:49 27° 103° (ESE) 09:55:40 437.305
GONETS M04 26 May 09:55:22 10:04:02 68° 81° (E) 10:12:39
CANX-2 26 May 09:56:41 10:00:46 44° 286° (WNW) 10:04:50 2200.000
SEEDS 26 May 10:02:37 10:06:48 61° 285° (WNW) 10:11:00 437.485
DELFI C3 26 May 10:06:25 10:07:58 12° 92° (E) 10:09:31 145.870
PRISM 26 May 10:08:55 10:11:29 16° 266° (W) 10:14:06 437.425
